Location: *
(45.4990°S, 142.4470°W)
Time: 12:30:56
(UTC+00:00)

Daily predictions for brighter satellites

Satellite Brightness Start Highest point End
(mag) Time Altitude Azimuth Time Altitude Azimuth Time Altitude Azimuth
USA 267 4.1 12:08:56 10° SE 12:14:59 39° SSW 12:15:05 39° SSW
Meteor 1-27 Rocket 4.4 12:29:53 10° S 12:35:46 54° ESE 12:37:45 38° NE
COSMOS 2406 3.6 12:38:08 60° SE 12:38:08 60° SE 12:42:54 10° SSE
Cosmos 2322 Rocket 4.4 12:43:44 10° S 12:48:12 23° SE 12:52:37 10° E
NOSS 3-1 (C) 4.1 12:50:00 65° WNW 12:51:17 75° SW 12:59:09 10° SE
CZ-4C R/B 4.3 12:55:41 20° SW 12:57:12 22° SSW 13:02:04 10° SSE
ISS -1.1 13:02:32 21° ESE 13:02:32 21° ESE 13:03:50 10° ESE
SL-8 Rocket 4.1 12:56:26 10° S 13:02:50 74° E 13:09:11 10° NNE
USA 306 4.3 13:13:15 29° ENE 13:13:15 29° ENE 13:15:14 10° ENE
PSLV R/B 4.4 13:12:39 10° NNE 13:16:54 50° ESE 13:21:10 10° S
Meteor 1-19 Rocket 4.2 13:13:47 10° S 13:19:21 79° E 13:24:58 10° NNE
Cosmos 1666 4.4 13:23:36 25° S 13:23:36 25° S 13:25:16 10° S
Aureole 3 3.9 13:18:24 10° S 13:21:53 54° E 13:26:04 10° NNE
ARIANE 5 R/B 4.1 13:26:14 22° SW 13:26:14 22° SW 13:28:12 10° SSW
Okean 1 4.0 13:21:35 10° S 13:24:34 48° S 13:24:34 48° S
SL-24 R/B - RUBIN 2 4.1 13:29:34 50° N 13:29:34 50° N 13:33:09 10° NNE
Okean 3 Rocket 3.7 13:27:46 58° NNE 13:28:36 78° E 13:33:14 10° SSE
Cosmos 1328 Rocket 3.9 13:25:53 10° SSW 13:29:23 52° SSW 13:29:23 52° SSW
USA 229 DEB 4.0 13:27:05 32° NNW 13:31:09 77° NE 13:38:34 10° SE
USA 229 4.0 13:27:08 32° NNW 13:31:14 77° NE 13:38:40 10° SE
Cosmos 2333 Rocket 4.4 13:27:12 10° S 13:31:50 25° SE 13:36:26 10° ENE
USA 305 3.0 13:32:46 60° ENE 13:32:46 60° ENE 13:35:55 10° ENE
Cosmos 864 Rocket 4.4 13:26:53 10° S 13:33:14 81° W 13:39:26 10° N
Cosmos 1242 Rocket 3.2 13:34:58 47° ENE 13:35:14 49° E 13:38:34 10° SSE
SJ-12 4.2 13:31:29 10° NNE 13:35:32 69° ESE 13:39:40 10° S
SL-16 R/B 2.8 13:30:29 10° S 13:36:29 49° WSW 13:37:40 44° W
H-2A R/B 2.9 13:31:32 10° NE 13:36:31 51° ESE 13:41:43 10° S
Spot 4 Rocket 3.9 13:34:04 10° N 13:39:14 70° WNW 13:44:28 10° SSW
Cosmos 2082 Rocket 2.6 13:39:11 42° WSW 13:39:46 43° SW 13:45:15 10° SSE
Cosmos 1833 Rocket 4.2 13:39:58 20° SW 13:40:00 20° SW 13:44:06 10° S
Cosmos 2360 Rocket 3.7 13:36:42 10° SSW 13:41:59 37° SE 13:47:14 10° ENE
SL-16 R/B 2.4 13:36:31 10° SSW 13:42:16 72° ESE 13:47:57 10° NNE
CZ-2C R/B 3.0 13:39:19 10° NNE 13:43:01 66° ESE 13:46:52 10° S
ATLAS 3B R/B 3.8 13:43:15 25° WSW 13:45:25 30° SSW 13:51:15 10° SSE
Cosmos 2278 3.6 13:40:47 10° SSW 13:46:28 63° WNW 13:52:05 10° N
Cosmos 1821 Rocket 4.3 13:40:59 10° S 13:47:24 72° E 13:53:48 10° NNE
Meteor 1-20 Rocket 4.4 13:48:03 38° NW 13:49:59 53° WSW 13:55:48 10° S
USA 307 2.4 13:51:31 69° NW 13:51:33 69° NW 13:55:20 10° NE
CENTAUR R/B 4.2 13:47:57 10° SSW 13:52:39 23° SSE 13:56:50 10° E
Cosmos 1932 4.5 13:48:16 10° SW 13:54:13 52° WNW 14:00:14 10° NNE
FengYun 1-2 T 4.4 13:50:50 10° NNE 13:56:19 73° ESE 14:01:53 10° S
NOSS 3-1 (A) 4.3 13:54:19 29° WNW 13:59:02 58° SW 14:06:38 10° SE
CZ-4B R/B 4.2 13:54:19 10° NE 13:59:03 54° ESE 14:03:58 10° S
Cosmos 1939 Rocket 2.7 13:57:29 10° N 14:01:35 76° W 14:05:41 10° SSW
ARGOS Delta rocket 4.0 13:56:54 10° S 14:01:56 57° WSW 14:04:33 26° NW
Cosmos 1766 Rocket 4.3 14:02:55 33° WSW 14:02:55 33° WSW 14:06:43 10° S
ARGOS 4.3 13:59:30 10° NE 14:04:38 46° ESE 14:09:49 10° S
GP-B 3.0 14:00:15 10° N 14:04:43 88° W 14:09:16 10° S
Helios 1A 3.4 14:00:34 10° SSE 14:04:45 62° ENE 14:08:52 10° N
Cosmos 1500 Rocket 3.9 14:00:28 10° N 14:04:53 68° E 14:09:25 10° SSE
USA 308 2.7 14:05:38 46° WNW 14:06:15 52° NW 14:09:59 10° NE
Cosmos 2218 Rocket 4.2 14:00:50 10° SSW 14:06:43 45° W 14:12:36 10° NNW
Meteor 2-11 Rocket 4.4 14:01:23 10° SSW 14:07:37 78° W 14:13:47 10° N
Cosmos 1805 Rocket 4.3 14:07:51 10° N 14:12:14 57° E 14:16:39 10° SSE
USA 184 3.8 14:02:31 20° WNW 14:12:43 54° SW 14:18:30 10° SSE
YAOGAN 11 4.3 14:08:25 10° S 14:12:49 49° WSW 14:15:13 24° NW
Cosmos 2181 Rocket 4.5 14:16:52 17° NW 14:21:22 40° WSW 14:27:18 10° S
Cosmos 1515 Rocket 3.9 14:17:35 10° SSW 14:21:49 42° W 14:25:59 10° NNW
Cosmos 2237 4.2 14:18:19 10° SSW 14:24:02 66° WNW 14:29:43 10° NNE
SMAP 4.2 14:20:38 10° NE 14:25:08 47° ESE 14:29:41 10° S
Cosmos 2251 Rocket 3.7 14:21:49 10° SSW 14:27:17 80° ESE 14:32:42 10° NNE
Cosmos 2084 Rocket 3.7 14:23:25 10° SW 14:28:18 70° NW 14:32:59 10° NNE
COBE Rocket 3.9 14:23:56 10° NNE 14:28:46 87° ESE 14:33:34 10° S
CZ-2C R/B 2.8 14:23:18 10° S 14:28:46 60° WSW 14:34:17 10° NNW
Meteor 2-4 Rocket 3.7 14:23:21 10° SSW 14:28:49 56° W 14:34:06 10° N
Cosmos 2322 Rocket 2.1 14:27:09 10° SSW 14:32:48 70° WNW 14:38:23 10° NNE
SL-8 R/B 4.0 14:30:41 19° W 14:33:53 50° NNW 14:38:33 10° NE
Meteor 1-14 Rocket 4.3 14:29:08 10° NNW 14:34:59 84° W 14:41:03 10° S
Cosmos 407 Rocket 3.7 14:32:16 10° SSW 14:37:29 73° ESE 14:42:37 10° NNE
ISS -2.3 14:35:28 17° WSW 14:37:32 30° S 14:40:38 10° SE
Cosmos 1536 4.2 14:34:04 10° NNE 14:37:56 43° E 14:41:52 10° SSE
Meteor 1-31 Rocket 2.6 14:38:29 10° N 14:42:17 70° WNW 14:46:11 10° SSW
NOAA 12 4.4 14:41:07 10° N 14:46:08 45° W 14:51:14 10° SSW
Nadezhda 3 Rocket 4.1 14:40:59 10° NNW 14:47:15 58° WSW 14:53:36 10° S
USA 306 4.2 14:47:40 15° WNW 14:49:01 18° NW 14:51:44 10° N
Cosmos 1066 Rocket 4.1 14:43:48 10° SSW 14:49:26 77° W 14:54:51 10° N
Cosmos 2219 Rocket 3.0 14:44:30 10° SSW 14:50:05 56° ESE 14:55:35 10° NE
CZ-4B R/B 3.9 14:46:43 10° N 14:50:28 52° W 14:54:26 10° SSW
Meteor 1-29 4.0 14:49:57 10° NNW 14:52:33 22° W 14:55:10 10° SW
Sich 1 3.1 14:51:21 10° NNW 14:55:38 58° W 14:59:58 10° S
Cosmos 1666 Rocket 4.0 14:55:29 10° N 14:59:54 70° E 15:04:27 10° SSE
ADEOS 4.3 14:54:57 10° NNE 15:00:06 60° ESE 15:05:20 10° S
USA 305 4.3 15:07:17 10° W 15:09:40 16° NW 15:12:01 10° NNW
Cosmos 1242 Rocket 4.5 15:08:50 10° W 15:09:45 11° WSW 15:10:41 10° SW
Cosmos 1743 Rocket 4.4 15:06:27 10° NW 15:10:25 31° WSW 15:14:25 10° S
Cosmos 2056 Rocket 4.1 15:05:44 10° N 15:11:08 68° ENE 15:16:36 10° SSE
Meteor 1-13 Rocket 4.2 15:05:32 10° SSW 15:11:09 81° W 15:16:42 10° N
Cosmos 1633 Rocket 3.3 15:08:12 10° N 15:12:35 78° E 15:17:01 10° SSE
Cosmos 1862 Rocket 3.8 15:08:23 10° S 15:12:49 78° E 15:17:10 10° NNE
DMSP B5D2-2 4.5 15:08:21 10° SSE 15:13:44 73° ENE 15:19:01 10° N
Cosmos 1707 Rocket 3.6 15:09:39 10° SSW 15:14:07 72° W 15:18:32 10° N
H-2A R/B 3.1 15:12:12 10° NW 15:16:14 23° W 15:20:24 10° SW
Cosmos 2333 Rocket 2.2 15:10:55 10° SSW 15:16:35 65° WNW 15:22:11 10° NNE
